Weather Roundup
Issued by NWS Springfield, MO

Home | Current Version | Previous Version | Text Only | Print | Product List | Glossary On
Versions: 1 2 3 4 5 6 7 8 9 10 11 12 13 14 15 16 17 18 19 20 21 22 23 24 25 26 27 28 29 30 31 32 33 34 35 36 37 38 39 40 41 42 43 44 45 46 47 48 49 50
000
NZUS99 KSGF 200259
HRRSGF

HOURLY WEATHER
NATIONAL WEATHER SERVICE SPRINGFIELD MO
1000 PM CDT TUE AUG 19 2014

......SGF CWA......

CITY           SKY/WX    TMP DP  RH WIND       PRES   REMARKS
SPRINGFIELD    CLEAR     79  66  64 SW8       29.89R
JOPLIN         CLEAR     81  70  69 S8        29.87R
WEST PLAINS    PTCLDY    81  69  67 SW7       29.91R
ROLLA          CLEAR     73  68  84 SE5       29.85R
OSAGE BEACH    CLEAR     75  72  88 CALM      29.85R

......SURROUNDING SGF CWA......

CITY           SKY/WX    TMP DP  RH WIND       PRES   REMARKS
CHANUTE        CLEAR     80  69  69 S8        29.84R HAZE
PARSONS        CLEAR     83  71  67 S6        29.85R
COFFEYVILLE    CLEAR     83  72  69 S9        29.83R
EMPORIA        CLEAR     77  67  71 S9        29.82R
SILOAM SPRINGS CLEAR     81  70  69 S6        29.92R
HARRISON AR    CLEAR     79  71  76 S6        29.92R
NEAR YELLVILLE CLEAR     82  70  65 SW6       29.89R

......KANSAS AND MISSOURI......

CITY           SKY/WX    TMP DP  RH WIND       PRES   REMARKS
KANSAS CTY INT CLEAR     83  71  67 SE9       29.81R
DOWNTOWN KC    CLEAR     84  75  74 E5        29.79R HX  92
COLUMBIA       CLEAR     78  72  81 E3        29.84R
SEDALIA        CLEAR     78  72  81 S5        29.84R
ST JOSEPH      CLEAR     75  73  93 CALM      29.80R
ST LOUIS       PTCLDY    80  71  74 CALM      29.83R
SPIRIT OF STL  CLEAR     74  73  97 CALM      29.82R
KIRKSVILLE     MOCLDY    72  70  93 CALM      29.85R
WICHITA        PTCLDY    82  67  60 S12       29.82R
TOPEKA         CLEAR     82  72  71 E3        29.79R
OLATHE         CLEAR     79  71  76 S5        29.82R

......TENNESSEE......

CITY           SKY/WX    TMP DP  RH WIND       PRES   REMARKS
MEMPHIS        PTCLDY    85  76  74 SW6       29.90R HX  94
NASHVILLE      PTCLDY    80  74  81 S7        29.89R

......ARKANSAS.......

CITY           SKY/WX    TMP DP  RH WIND       PRES   REMARKS
FAYETTEVILLE   CLEAR     79  73  82 S5        29.92R
FT SMITH       CLEAR     85  74  69 S8        29.88R HX  92
LITTLE ROCK    MOCLDY    83  76  79 SW8       29.90R HX  91

......OKLAHOMA.......

CITY           SKY/WX    TMP DP  RH WIND       PRES   REMARKS
TULSA          MOCLDY    88  70  55 S12       29.84R HX  93
PONCA CITY     PTCLDY    86  67  52 S9G18     29.83R
MCALESTER      PTCLDY    83  72  69 S5        29.89R
OKLAHOMA CITY  PTCLDY    83  67  58 S12       29.87R

......IOWA............

CITY           SKY/WX    TMP DP  RH WIND       PRES   REMARKS
DES MOINES     CLEAR     78  65  63 CALM      29.81R
QUAD CITIES    CLEAR     71  64  78 W3        29.80R

......ILLINOIS........

CITY           SKY/WX    TMP DP  RH WIND       PRES   REMARKS
QUINCY         PTCLDY    75  71  87 S5        29.82R
CHICAGO        PTCLDY    74  64  71 NW7       29.76R



USA.gov is the U.S. government's official web portal to all federal, state and local government web resources and services.